Погода в Верхнеднепровске

Украина / Днепропетровская область     48°38′33″N   34°20′24″E
темп.,
°C
ветер,
м/с
пор.,
м/с
влажн.,
%
обл.,
%
осадки,
мм/ч
давл.,
гПа
погр.,
м
15 апреля, чт
чт1500:00+8ю358145 0.0 101472
03:00+7ююв3583100 0.0 101494
06:00+7юв348988 0.0 101387
09:00+8ююв4587100 0.0 1013236
12:00+10ююв5681100 0.1 1013513
15:00+10ююз5775100 1.3 1012420
18:00+10ююз4571100 0.7 1012184
21:00+8ю478181 0.8 1012193
16 апреля, пт
пт1600:00+7ю5891100 0.6 1012391
03:00+7ю689397 1.3 1012333
06:00+7ю5893100 0.1 1013267
09:00+7ю5889100 0.1 1014365
12:00+7ю7987100 0.1 1015466
15:00+10юз477099 0.6 1015809
18:00+9зюз466999 0.5 1015306
21:00+6зюз58855 0.5 1017280
17 апреля, сб
сб1700:00+5зюз357898 0.0 1018458
03:00+5юз3487100 0.1 1019338
06:00+5юз3391100 0.1 1020298
09:00+6зюз3489100 0.1 1021366
12:00+7з348299 0.1 1022385
15:00+8зсз347798 0.1 1022459
18:00+8сз337364 0.1 1022391
21:00+8ссз337788 0.1 102353
18 апреля, вс
вс1800:00+7ссз348094 0.0 1023102
03:00+7с347994 0.0 102295
06:00+6с227887 0.0 102214
09:00+8ссв3372100 0.0 1022329
12:00+10всв226782 0.0 1022542
15:00+12св3458100 0.0 1021685
18:00+13всв3458100 0.0 1020306
21:00+11в34708 0.0 102137
19 апреля, пн
пн1900:00+10в357778 0.0 102187
03:00+9в478681 0.0 1020105
06:00+8в598893 0.0 1019175
09:00+10вюв71181100 0.0 1019334
12:00+13вюв91262100 0.0 1017606
15:00+14вюв81362100 0.0 1015631
18:00+13вюв91572100 0.4 1013541
21:00+11вюв101886100 2.7 1011516